Regional Weather Roundup
Issued by NWS Upton, NY

Current Version | Previous Version | Graphics & Text | Print | Product List | Glossary Off
Versions: 1 2 3 4 5 6 7 8 9 10 11 12 13 14 15 16 17 18 19 20 21 22 23 24 25 26 27 28 29 30 31 32 33 34 35 36 37 38 39 40 41 42 43 44 45 46 47 48 49 50

000
ASUS41 KOKX 231205
RWROKX

REGIONAL WEATHER ROUNDUP
NATIONAL WEATHER SERVICE NEW YORK NY
800 AM EDT WED JUL 23 2014

NOTE: "FAIR" INDICATES FEW OR NO CLOUDS BELOW 12,000 FEET WITH NO
SIGNIFICANT WEATHER AND/OR OBSTRUCTIONS TO VISIBILITY.

NYZ071-072-176-178-NJZ106-104-231300-
NEW YORK CITY METRO AREA


CITY           SKY/WX    TMP DP  RH WIND       PRES   REMARKS
CENTRAL PARK   SUNNY     75  65  70 VRB3      30.02R
LAGUARDIA APRT MOSUNNY   76  65  68 SW8       29.99R
KENNEDY INTL   PTSUNNY   75  67  76 SW8       30.01R
NEWARK/LIBERTY PTSUNNY   74  67  78 SW9       30.00R
BRNX BOT. GARD   N/A     75  64  69 CALM      30.02R
TETERBORO      MOSUNNY   77  65  66 SW8       29.98R
$$

NYZ177-179-078>081-231300-
LONG ISLAND NEW YORK

CITY           SKY/WX    TMP DP  RH WIND       PRES   REMARKS
FARMINGDALE    MOSUNNY   74  67  78 W7        30.01R
ISLIP          MOSUNNY   76  68  76 SW8       29.99R
SHIRLEY        MOSUNNY   74  69  85 SW12      30.01R
WESTHAMPTON    MOSUNNY   73  69  87 SW8       30.02R
MONTAUK POINT    N/A     72  70  93 SW8       30.01R
$$

NYZ052-065-067-231300-
HUDSON VALLEY

CITY           SKY/WX    TMP DP  RH WIND       PRES   REMARKS
WHITE PLAINS   SUNNY     73  66  78 CALM      29.99R
NEWBURGH       NOT AVBL
MONTGOMERY     SUNNY     74  68  81 SW7       29.98R
POUGHKEEPSIE   MOSUNNY   76  68  76 SW5       29.96R
ALBANY         MOSUNNY   76  69  79 S9        29.92R
$$

NJZ001-105-106-008-010-013-015-019>022-104-231300-
NEW JERSEY

CITY           SKY/WX    TMP DP  RH WIND       PRES   REMARKS
NEWARK/LIBERTY PTSUNNY   74  67  78 SW9       30.00R
TETERBORO      MOSUNNY   77  65  66 SW8       29.98R
CALDWELL       PTSUNNY   72  64  76 VRB5      29.99R
MORRISTOWN     MOSUNNY   73  66  78 SW8       30.00R
SOMERVILLE     SUNNY     72  66  81 S6        29.98S
LINDEN         FAIR      75  67  76 W7        30.01S
SUSSEX         SUNNY     74  68  81 S6        29.99R
ANDOVER          N/A     73  67  81 S3        30.00S
TRENTON        PTSUNNY   72  67  84 SW7       30.00S
MILLVILLE      CLOUDY    75  72  90 SW5       30.02R
ATLANTIC CITY  CLOUDY    73  70  90 SW7       30.02R
WRIGHTSTOWN    MOSUNNY   71  70  96 SW7       30.00R
TOMS RIVER     MOSUNNY   75  70  83 W8        30.02R
BELMAR         CLOUDY    73  66  78 SW7       30.02R
$$

PAZ047>061-062-071-231300-
EASTERN PENNSYLVANIA

CITY           SKY/WX    TMP DP  RH WIND       PRES   REMARKS
PHILADELPHIA   MOSUNNY   75  67  76 SW8       30.01R
ALLENTOWN      SUNNY     75  67  76 SW5       30.01R
SCRANTON       CLOUDY    75  68  78 SW8       30.00S
$$

CTZ002-004>006-009-010-012-RIZ004-006-007-MAZ004-011-015-231300-
SOUTHERN NEW ENGLAND
 IN CT

CITY           SKY/WX    TMP DP  RH WIND       PRES   REMARKS
BRADLEY INTL   PTSUNNY   75  66  73 S12       29.94S
HARTFORD       MOSUNNY   74  65  73 S8G17     29.95S
DANBURY        SUNNY     74  65  73 W7        30.00R
WTRBRY/OXFORD  MOSUNNY   72  64  78 SW5       30.01R
BRIDGEPORT     MOSUNNY   74  67  78 SW13      29.98R
MERIDEN        SUNNY     74  65  73 S8        29.98R
NEW HAVEN      PTSUNNY   76  67  73 SW6       29.98S
CHESTER        FAIR      72  66  83 S5        30.01R
GROTON         MOSUNNY   72  69  90 SW7       29.98S
WILLIMANTIC    MOSUNNY   73  65  75 S5        29.98R

 IN RI

CITY           SKY/WX    TMP DP  RH WIND       PRES   REMARKS
PROVIDENCE     MOSUNNY   75  65  70 SW8       29.97S
BLOCK ISLAND   MOSUNNY   72  66  83 SW17G23   30.00S
WESTERLY       PTSUNNY   73  68  84 SW8       30.00R

 IN MA

CITY           SKY/WX    TMP DP  RH WIND       PRES   REMARKS
BOSTON         SUNNY     76  66  71 SW14      29.92S
WORCESTER      SUNNY     72  67  84 SW13      29.98R
WESTFIELD      SUNNY     74  67  78 SE5       29.94S
PROVINCETOWN   SUNNY    N/A N/A N/A S14       29.95S
NANTUCKET      SUNNY     68  66  93 SW12      30.00F
$$

ANZ330-335-338-340-345-350-353-355-231300-
COASTAL MARINE OBSERVATIONS


STATION/POSITION TIME  SKY/WX   TEMP    WIND        PRES    VSBY  WAVE
                                AIR SEA DIR/SP/G                  HT/PER
                 (UTC)          (F)     (DEG/KT/KT) (MB)    (MI)  (FT/S)
NY HARB ENTRANCE NOT AVBL
4S FIRE IS       NOT AVBL
23SW MTP         1200            73 70              1015.5          3/ 5
HUDSON CANYON    1200            73 73  220/  8/  8 1016.7          2/ 9
EXECUTION ROCKS  1200            73 71  200/  8/ 10   N/A
WESTERN LI SOUND 1200            73     200/  8/ 10   N/A           0
CENTRAL LI SOUND 1200            72 72  210/ 12/ 16   N/A           1/ 4
EASTERN LI SOUND 1100            70 67  210/ 10/ 12   N/A
ROBBINS REEF     1200            73     240/  7/ 10   N/A
$$


>>>>>>>>>>>>>>>>>>>>>>>>>>>> KEY <<<<<<<<<<<<<<<<<<<<<<<<<<<
>                                                          <
>     SKY/WX - SKY CONDITION/PRESENT WEATHER               <
>     TMP    - TEMPERATURE IN FAHRENHEIT                   <
>     DP     - DEWPOINT IN FAHRENHEIT                      <
>     RH     - RELATIVE HUMIDITY IN PERCENT                <
>     WIND   - DIRECTION AND SPEED IN MPH                  <
>     PRES   - MEAN SEA LEVEL PRESSURE IN INCHES OF HG     <
>     WCI    - WIND CHILL INDEX                            <
>     VSB    - VISIBILITY IN MILES                         <
>     HX     - HEAT INDEX                                  <
>     TC     - TEMPERATURE IN CELSIUS                      <
>     VRB    - VARIABLE WIND DIRECTION                     <
>                                                          <
>>>>>>>>>>>>>>>>>>>>>>>>>>>> KEY <<<<<<<<<<<<<<<<<<<<<<<<<<<





USA.gov is the U.S. government's official web portal to all federal, state and local government web resources and services.